TimeEDT,TemperatureF,Dew PointF,Humidity,Sea Level PressureIn,VisibilityMPH,Wind Direction,Wind SpeedMPH,Gust SpeedMPH,PrecipitationIn,Events,Conditions,WindDirDegrees,DateUTC
12:53 AM,53.1,52.0,96,30.19,10.0,Calm,Calm,-,N/A,,Partly Cloudy,0,2013-08-15 04:53:00
1:53 AM,53.1,51.1,93,30.19,10.0,Calm,Calm,-,N/A,,Scattered Clouds,0,2013-08-15 05:53:00
2:53 AM,52.0,50.0,93,30.19,10.0,Calm,Calm,-,N/A,,Clear,0,2013-08-15 06:53:00
3:53 AM,51.1,50.0,96,30.19,10.0,Calm,Calm,-,N/A,,Clear,0,2013-08-15 07:53:00
4:53 AM,51.1,48.9,92,30.19,10.0,Calm,Calm,-,N/A,,Clear,0,2013-08-15 08:53:00
5:13 AM,50.0,48.2,94,30.20,2.5,Calm,Calm,-,N/A,,Partly Cloudy,0,2013-08-15 09:13:00
5:21 AM,50.0,48.2,94,30.20,1.8,Calm,Calm,-,N/A,,Partly Cloudy,0,2013-08-15 09:21:00
5:23 AM,50.0,48.2,94,30.20,3.0,Calm,Calm,-,N/A,,Partly Cloudy,0,2013-08-15 09:23:00
5:53 AM,50.0,48.0,93,30.19,7.0,Calm,Calm,-,N/A,,Partly Cloudy,0,2013-08-15 09:53:00
6:53 AM,51.1,48.9,92,30.20,9.0,Calm,Calm,-,N/A,,Partly Cloudy,0,2013-08-15 10:53:00
7:33 AM,50.0,48.2,94,30.21,1.0,Calm,Calm,-,N/A,,Mist,0,2013-08-15 11:33:00
7:40 AM,50.0,48.2,94,30.21,9.0,Calm,Calm,-,N/A,,Clear,0,2013-08-15 11:40:00
7:53 AM,52.0,50.0,93,30.21,9.0,Calm,Calm,-,N/A,,Clear,0,2013-08-15 11:53:00
8:00 AM,53.6,51.8,94,30.22,10.0,Calm,Calm,-,N/A,,Scattered Clouds,0,2013-08-15 12:00:00
8:53 AM,57.9,53.1,84,30.22,10.0,Calm,Calm,-,N/A,,Clear,0,2013-08-15 12:53:00
9:53 AM,63.0,54.0,72,30.22,10.0,Calm,Calm,-,N/A,,Clear,0,2013-08-15 13:53:00
10:53 AM,64.9,48.0,54,30.22,10.0,ENE,5.8,-,N/A,,Clear,60,2013-08-15 14:53:00
11:53 AM,68.0,48.9,50,30.21,10.0,Variable,3.5,-,N/A,,Clear,0,2013-08-15 15:53:00
12:53 PM,68.0,48.9,50,30.19,10.0,South,5.8,-,N/A,,Clear,180,2013-08-15 16:53:00
1:53 PM,71.1,50.0,47,30.16,10.0,Calm,Calm,-,N/A,,Partly Cloudy,0,2013-08-15 17:53:00
2:53 PM,72.0,48.9,44,30.15,10.0,Calm,Calm,-,N/A,,Clear,0,2013-08-15 18:53:00
3:53 PM,73.0,50.0,44,30.12,10.0,ENE,3.5,-,N/A,,Clear,70,2013-08-15 19:53:00
4:53 PM,73.9,50.0,43,30.12,10.0,Variable,3.5,-,N/A,,Clear,0,2013-08-15 20:53:00
5:53 PM,73.9,50.0,43,30.12,10.0,NNW,4.6,-,N/A,,Partly Cloudy,340,2013-08-15 21:53:00
6:53 PM,73.0,51.1,46,30.12,10.0,NNW,4.6,-,N/A,,Clear,330,2013-08-15 22:53:00
7:53 PM,69.1,53.1,57,30.13,10.0,Calm,Calm,-,N/A,,Clear,0,2013-08-15 23:53:00
8:53 PM,63.0,53.1,70,30.14,10.0,NNE,3.5,-,N/A,,Clear,30,2013-08-16 00:53:00
9:53 PM,63.0,54.0,72,30.15,10.0,Calm,Calm,-,N/A,,Clear,0,2013-08-16 01:53:00
10:53 PM,60.1,55.0,83,30.16,10.0,Calm,Calm,-,N/A,,Clear,0,2013-08-16 02:53:00
11:53 PM,57.9,55.0,90,30.15,10.0,Calm,Calm,-,N/A,,Clear,0,2013-08-16 03:53:00